カタログに戻る

STARLINK-37416

運用中通信SSO
NORAD 100310·PAYLOAD·🇺🇸 United States

打ち上げ Aug 12, 2026 から Vandenberg Space Force Base

Loading…

次のパス (今後24時間)

TLE

最新Source: Space-Track

元期: Sep 14, 2026, 19:00 UTC

1 A0310U 26184K   26257.79207505  .00012255  00000-0  34063-3 0  9996
2 A0310  97.2833 122.9608 0001813  80.6441 279.5008 15.37002269  6420

AllMySatでSTARLINK-37416をリアルタイム追跡

Download on the App Store